Regional Weather Roundup
Issued by NWS Little Rock, AR

Home | Current Version | Previous Version | Graphics & Text | Print | Product List | Glossary On
Versions: 1 2 3 4 5 6 7 8 9 10 11 12 13 14 15 16 17 18 19 20 21 22 23 24 25 26 27 28 29 30 31 32 33 34 35 36 37 38 39 40 41 42 43 44 45 46 47 48 49 50
000
ASUS44 KLZK 280705
RWRLZK

WEATHER ROUNDUP FOR ARKANSAS
NATIONAL WEATHER SERVICE LITTLE ROCK AR
100 AM CST WED JAN 28 2015

NOTE: "FAIR" INDICATES FEW OR NO CLOUDS BELOW 12,000 FEET WITH NO
SIGNIFICANT WEATHER AND/OR OBSTRUCTIONS TO VISIBILITY.

ARZ001-003-010-029-280800-
NORTHWEST ARKANSAS

CITY           SKY/WX    TMP DP  RH WIND       PRES   REMARKS
FAYETTEVILLE   CLEAR     33  29  85 CALM      30.10F
FORT SMITH     CLEAR     45  33  63 NE6       30.12S
HARRISON       CLEAR     42  30  62 SE9       30.14S
BENTONVILLE    CLEAR     45  28  53 SE6       30.09F
ROGERS         CLEAR     46  31  55 SE9       30.09F
SILOAM SPGS    CLEAR     46  27  46 S6        30.09F
HIGHFILL       CLEAR     40  28  62 E5        30.08F
$$

ARZ004-005-016-280800-
NORTH CENTRAL ARKANSAS

CITY           SKY/WX    TMP DP  RH WIND       PRES   REMARKS
BATESVILLE     CLEAR     37  34  87 E5        30.23S
FLIPPIN        CLEAR     39  30  70 E5        30.17S
MTN HOME       CLEAR     41  34  76 E7        30.17S
$$

ARZ040-041-280800-
WEST CENTRAL ARKANSAS

CITY           SKY/WX    TMP DP  RH WIND       PRES   REMARKS
MENA           CLEAR     39  36  87 CALM      30.15S
MOUNT IDA      CLEAR     40  34  79 CALM      30.13S
$$

ARZ009-017-025-026-028-280800-
NORTHEAST ARKANSAS

CITY           SKY/WX    TMP DP  RH WIND       PRES   REMARKS
CORNING        FAIR      36  32  87 NE6       30.25S
JONESBORO      CLEAR     35  32  88 CALM      30.24R
NEWPORT        CLEAR     36  34  92 NE7       30.24F
WALNUT RIDGE   CLEAR     36  28  75 NE3       30.24S
BLYTHEVILLE    CLEAR     31  28  89 E8        30.24S WCI  23
$$

ARZ022-023-033-042-044-280800-
CENTRAL ARKANSAS

CITY           SKY/WX    TMP DP  RH WIND       PRES   REMARKS
LITTLE ROCK    CLEAR     41  35  79 CALM      30.20R
N LITTLE ROCK    N/A     44  39  82 E7        30.20R
SEARCY         CLEAR     39  36  89 NE6       30.22F
HOT SPRINGS    CLEAR     44  35  70 E7        30.17S
RUSSELLVILLE   CLEAR     49  34  56 E7        30.16S
CLINTON        FAIR      32  32 100 CALM      30.22R
$$

ARZ036-280800-
EAST ARKANSAS

CITY           SKY/WX    TMP DP  RH WIND       PRES   REMARKS
WEST MEMPHIS   FOG       34  33  96 CALM      30.23R VSB 3/4
$$

ARZ050-053-066-070-073-280800-
SOUTHWEST ARKANSAS

CITY           SKY/WX    TMP DP  RH WIND       PRES   REMARKS
ARKADELPHIA    FAIR      38  38 100 CALM      30.18S
CAMDEN         CLEAR     39  36  87 CALM      30.17F
TEXARKANA      CLEAR     49  36  61 CALM      30.13F
EL DORADO      CLEAR     43  37  79 SE3       30.17S
DE QUEEN       CLEAR     41  36  82 E3        30.13S
$$

ARZ056-057-069-280800-
SOUTHEAST ARKANSAS

CITY           SKY/WX    TMP DP  RH WIND       PRES   REMARKS
PINE BLUFF     CLEAR     42  36  79 E5        30.19S
STUTTGART      CLEAR     43  36  75 E5        30.21R
MONTICELLO     CLEAR     43  36  76 E3        30.18F

$$




USA.gov is the U.S. government's official web portal to all federal, state and local government web resources and services.